Location: Unspecified
(0.0000°N, 0.0000°E)
Time: 14:54:38
(UTC+01:00)

Ariane H10 - Visible Passes

Search period start: 28 February 2015 00:00
Search period end: 10 March 2015 00:00
Orbit: 465 x 34869 km, 7.2° (Epoch: 27 February)

Date Brightness Start Highest point End Pass type
(mag) Time Alt. Az. Time Alt. Az. Time Alt. Az.
28 Feb 6.9 17:35:11 10° WSW 17:43:00 68° S 03:11:30 10° E visible
01 Mar 4.5 14:03:02 10° W 14:05:48 55° S 14:10:47 10° ESE visible
02 Mar 5.4 01:17:04 10° W 10:31:26 70° N 10:35:34 10° E visible
02 Mar 9.2 21:20:04 10° W 22:44:39 86° S 07:03:00 10° E visible
03 Mar 7.1 17:44:49 10° WSW 17:53:35 69° S 03:22:38 10° E visible
04 Mar 4.6 14:12:42 10° W 14:15:31 52° S 14:21:29 10° ESE visible
05 Mar 5.2 01:32:16 10° W 10:41:12 72° N 10:44:59 10° E visible
05 Mar 7.9 21:30:07 10° W 06:57:15 75° N 07:12:32 10° E visible
06 Mar 7.3 17:54:09 10° WSW 18:03:58 70° S 03:33:13 10° E visible
07 Mar 4.7 14:22:00 10° WSW 14:24:55 50° S 14:32:11 10° ESE visible
08 Mar 5.0 01:48:48 10° W 10:50:37 76° N 10:54:05 10° E visible
08 Mar 7.7 21:39:57 10° W 07:08:18 75° N 07:21:42 10° E visible
